Regional Weather Roundup
Issued by NWS

Home | Current Version | Previous Version | Graphics & Text | Print | Product List | Glossary On
Versions: 1 2 3 4 5 6 7 8 9 10 11 12 13 14 15 16 17 18 19 20 21 22 23 24 25 26 27 28 29 30 31 32 33 34 35 36 37 38 39 40 41 42 43 44 45 46 47 48 49 50
110
ASUS44 KMEG 290410
RWRTN
TENNESSEE HOURLY STATE WEATHER ROUNDUP
NATIONAL WEATHER SERVICE MEMPHIS TN
1100 PM CDT WED JUN 28 2017

TNZ002-004-019-021-049-052-054-088>092-290500-
WEST TENNESSEE

CITY           SKY/WX    TMP DP  RH WIND       PRES   REMARKS
MEMPHIS INTL   CLEAR     80  67  64 SE10      29.97S
NWS MEMPHIS      N/A     77 N/A N/A MISG        N/A
JACKSON        CLEAR     72  67  84 CALM      30.00R
SOMERVILLE     CLEAR     73  66  78 MISG      29.98R
COVINGTON      CLEAR     77  66  69 CALM      29.98R
UNION CITY     CLEAR     73  66  78 SE3       29.98R
BOLIVAR        CLEAR     72  66  83 CALM      29.99S
HUNTINGDON     CLEAR     73  66  78 SE3       30.00R
LEXINGTON      CLEAR     72  66  83 CALM      30.01R
SELMER         CLEAR     75  64  69 SE5       30.00S
SAVANNAH       PTCLDY    70  66  88 SE3       30.00R
$$

TNZ008-025-027-028-033-062-065-066-290500-
NORTH MIDDLE TENNESSEE

CITY           SKY/WX    TMP DP  RH WIND       PRES   REMARKS
NASHVILLE      CLEAR     74  61  63 S3        30.04R
PORTLAND       CLEAR     72  61  68 CALM      30.04R
CLARKSVILLE    PTCLDY    74  62  66 S5        30.02R
SMYRNA         CLEAR     72  61  68 CALM      30.05S
COOKEVILLE     CLOUDY    64  61  88 CALM      30.09R
GALLATIN       CLEAR     72  63  73 CALM      30.07R
CROSSVILLE     CLEAR     67  56  67 CALM      30.15S
$$

TNZ061-075-076-078-094-096-097-290500-
SOUTH MIDDLE TENNESSEE

CITY           SKY/WX    TMP DP  RH WIND       PRES   REMARKS
FAYETTEVILLE   CLEAR     72  63  73 SE6       30.07S
TULLAHOMA      CLEAR     72  59  64 S5        30.10R
WINCHESTER     CLEAR     72  63  73 SE6       30.09S
MCMINNVILLE    CLEAR     68  63  83 CALM      30.09S
COLUMBIA       CLEAR     73  63  68 SE5       30.02S
SHELBYVILLE    CLEAR     70  63  78 SE5       30.07R
$$

TNZ017-018-042-046-047-290500-
NORTHEAST TENNESSEE

CITY           SKY/WX    TMP DP  RH WIND       PRES   REMARKS
TRI CITIES     PTCLDY    67  57  70 CALM      30.16S
ELIZABETHTON   PTCLDY    63  59  88 CALM      30.17F
$$

TNZ012-013-036-069-073-074-290500-
CENTRAL EAST TENNESSEE

CITY           SKY/WX    TMP DP  RH WIND       PRES   REMARKS
KNOXVILLE      CLEAR     69  59  70 CALM      30.11F
OAK RIDGE      CLEAR     67  57  70 CALM      30.13S
DOWNTOWN KNOXV CLEAR     66  64  94 CALM      30.11S
GATLINBURG     CLEAR     70  55  60 CALM      30.12S
MORRISTOWN     MOCLDY    72  61  68 CALM      30.13S
JACKSBORO      CLEAR     63  59  88 CALM      30.15S
$$

TNZ083-085-099-290500-
SOUTHEAST TENNESSEE

CITY           SKY/WX    TMP DP  RH WIND       PRES   REMARKS
CHATTANOOGA    CLEAR     77  62  59 SE7       30.10F
DAYTON         MOCLDY    68  64  88 CALM      30.10S
$$

SKY/WX REPORTED AS FAIR MEANS FEW OR NO CLOUDS BELOW
12 THOUSAND FEET.





USA.gov is the U.S. government's official web portal to all federal, state and local government web resources and services.